Total_Precipitation_Accumulation
0.65 0.61 0.61 0.60 0.55 0.54 0.54 0.55 0.57 0.56 0.52 0.48 0.43 0.39 0.39 0.41 0.37 0.31 0.27 0.25 0.24 0.28 0.40 0.61 0.92 1.23 1.45 1.54 1.54 1.37 1.27 1.13 0.98 0.89 0.85 0.91 0.93 0.91 0.95 1.07 1.05 0.95 0.93
0.61 0.56 0.52 0.52 0.48 0.43 0.41 0.42 0.43 0.46 0.48 0.44 0.37 0.32 0.33 0.36 0.36 0.34 0.34 0.34 0.30 0.28 0.33 0.46 0.68 0.99 1.34 1.58 1.66 1.59 1.44 1.34 1.17 1.01 0.93 0.93 0.97 0.96 0.95 1.00 1.09 1.07 0.97
0.64 0.62 0.56 0.52 0.49 0.47 0.47 0.45 0.45 0.44 0.42 0.41 0.38 0.34 0.30 0.29 0.32 0.34 0.36 0.38 0.38 0.36 0.35 0.42 0.54 0.78 1.18 1.55 1.75 1.86 1.70 1.51 1.38 1.23 1.03 0.93 0.95 0.99 0.99 1.02 1.10 1.17 1.14
0.68 0.64 0.60 0.56 0.56 0.56 0.57 0.55 0.49 0.47 0.44 0.40 0.38 0.35 0.33 0.29 0.27 0.29 0.34 0.36 0.36 0.36 0.35 0.38 0.50 0.71 0.99 1.34 1.68 1.95 2.04 1.83 1.69 1.60 1.39 1.15 1.00 1.01 1.05 1.07 1.13 1.22 1.30
0.77 0.67 0.63 0.63 0.65 0.69 0.67 0.63 0.58 0.51 0.47 0.44 0.43 0.40 0.36 0.33 0.31 0.31 0.31 0.35 0.37 0.36 0.35 0.37 0.43 0.55 0.76 1.09 1.56 1.97 2.33 2.34 2.13 1.99 1.80 1.57 1.31 1.14 1.16 1.15 1.19 1.29 1.40
0.85 0.78 0.71 0.70 0.73 0.74 0.73 0.70 0.63 0.58 0.54 0.52 0.52 0.50 0.43 0.36 0.33 0.32 0.31 0.33 0.35 0.36 0.36 0.40 0.44 0.43 0.49 0.68 1.03 1.53 2.02 2.39 2.42 2.31 2.19 1.99 1.76 1.54 1.40 1.34 1.31 1.40 1.52
0.93 0.89 0.78 0.75 0.72 0.73 0.70 0.68 0.68 0.67 0.63 0.62 0.66 0.65 0.57 0.46 0.39 0.34 0.34 0.35 0.36 0.40 0.47 0.52 0.58 0.55 0.48 0.52 0.59 0.82 1.32 1.97 2.36 2.51 2.50 2.45 2.24 1.98 1.76 1.60 1.54 1.58 1.65
0.99 1.02 0.90 0.81 0.77 0.73 0.74 0.75 0.72 0.73 0.73 0.68 0.70 0.75 0.69 0.61 0.48 0.36 0.34 0.35 0.39 0.46 0.57 0.63 0.69 0.70 0.63 0.54 0.45 0.51 0.71 1.23 1.93 2.47 2.62 2.61 2.65 2.47 2.14 1.88 1.77 1.81 1.87
0.92 1.01 1.03 0.92 0.84 0.78 0.73 0.71 0.70 0.69 0.71 0.66 0.63 0.83 0.89 0.66 0.44 0.33 0.30 0.31 0.32 0.34 0.38 0.46 0.53 0.59 0.66 0.66 0.57 0.51 0.54 0.76 1.31 2.08 2.63 2.74 2.78 2.89 2.69 2.26 2.00 1.93 1.98
0.95 0.92 0.99 0.99 0.94 0.89 0.81 0.72 0.69 0.68 0.73 0.76 0.66 0.62 0.66 0.65 0.64 0.45 0.29 0.27 0.27 0.28 0.27 0.29 0.34 0.40 0.52 0.63 0.70 0.68 0.64 0.66 0.96 1.50 2.22 2.82 2.96 3.11 3.25 2.90 2.43 2.15 2.06
1.05 0.97 0.94 0.97 0.96 0.93 0.91 0.83 0.75 0.74 0.76 0.79 0.76 0.66 0.58 0.51 0.53 0.62 0.43 0.32 0.30 0.28 0.27 0.27 0.30 0.31 0.36 0.46 0.58 0.69 0.76 0.74 0.90 1.21 1.64 2.38 3.07 3.34 3.54 3.43 2.92 2.44 2.18
1.10 1.08 0.98 0.98 0.98 0.95 0.94 0.91 0.83 0.79 0.79 0.78 0.76 0.72 0.73 0.69 0.57 0.60 0.55 0.39 0.35 0.32 0.33 0.34 0.34 0.33 0.34 0.38 0.46 0.62 0.72 0.77 0.84 0.99 1.18 1.63 2.48 3.23 3.52 3.49 3.21 2.80 2.39
1.22 1.11 1.06 0.98 0.98 0.96 0.94 0.93 0.92 0.87 0.80 0.82 0.83 0.78 0.72 0.67 0.62 0.67 0.75 0.62 0.51 0.41 0.40 0.39 0.37 0.37 0.38 0.40 0.45 0.52 0.57 0.68 0.78 0.88 0.92 1.05 1.48 2.41 3.30 3.65 3.44 3.08 2.77
1.24 1.13 1.08 1.00 0.94 0.96 0.97 0.93 0.90 0.88 0.85 0.80 0.78 0.77 0.74 0.68 0.68 0.74 0.83 0.91 0.82 0.57 0.47 0.43 0.39 0.39 0.41 0.45 0.49 0.52 0.49 0.57 0.66 0.78 0.89 0.98 1.11 1.50 2.32 3.33 3.93 3.62 3.11
1.35 1.26 1.17 1.12 1.03 1.00 0.99 0.97 0.92 0.86 0.87 0.87 0.83 0.79 0.80 0.72 0.71 0.73 0.79 0.93 1.12 0.94 0.53 0.37 0.38 0.41 0.42 0.47 0.56 0.53 0.48 0.54 0.61 0.69 0.79 0.90 0.98 1.09 1.42 2.12 3.13 3.88 3.81
1.45 1.46 1.37 1.30 1.21 1.16 1.12 1.07 1.01 0.91 0.89 0.89 0.90 0.88 0.86 0.81 0.77 0.77 0.81 0.82 0.89 1.00 0.76 0.38 0.35 0.41 0.48 0.50 0.58 0.55 0.55 0.63 0.64 0.67 0.73 0.78 0.86 1.00 1.15 1.45 2.07 3.08 3.75
1.47 1.53 1.56 1.49 1.41 1.31 1.27 1.24 1.17 1.09 1.03 0.95 0.95 0.95 0.91 0.85 0.85 0.80 0.81 0.78 0.76 0.84 0.86 0.46 0.36 0.42 0.53 0.58 0.62 0.62 0.63 0.62 0.60 0.65 0.71 0.77 0.81 0.92 1.07 1.26 1.55 2.19 3.12
1.42 1.46 1.63 1.66 1.60 1.49 1.39 1.40 1.40 1.31 1.25 1.16 1.08 1.05 1.01 0.98 1.00 0.94 0.89 0.83 0.76 0.75 0.86 0.70 0.44 0.44 0.53 0.64 0.72 0.74 0.72 0.69 0.65 0.73 0.77 0.78 0.81 0.87 1.01 1.18 1.38 1.69 2.31
1.37 1.46 1.62 1.75 1.71 1.66 1.57 1.44 1.49 1.59 1.55 1.46 1.37 1.34 1.26 1.21 1.22 1.16 1.09 0.96 0.85 0.78 0.80 0.81 0.61 0.50 0.56 0.69 0.85 0.87 0.85 0.80 0.73 0.80 0.83 0.84 0.85 0.86 0.93 1.08 1.27 1.46 1.74
1.30 1.48 1.59 1.75 1.82 1.87 1.95 1.84 1.74 1.66 1.66 1.65 1.59 1.54 1.56 1.52 1.47 1.40 1.36 1.16 0.99 0.93 0.89 0.91 0.79 0.65 0.64 0.73 0.98 1.09 1.07 0.99 0.92 0.83 0.86 0.87 0.90 0.91 0.90 0.94 1.04 1.21 1.46
1.30 1.43 1.54 1.67 1.72 1.93 2.38 2.49 2.09 1.60 1.44 1.44 1.41 1.38 1.46 1.60 1.66 1.67 1.66 1.47 1.32 1.29 1.21 1.18 1.05 0.88 0.80 0.89 1.08 1.17 1.25 1.19 1.19 1.02 0.87 0.81 0.82 0.82 0.84 0.90 0.99 1.10 1.28
1.28 1.40 1.45 1.47 1.53 1.74 2.28 2.42 1.92 1.48 1.29 1.27 1.27 1.20 1.22 1.35 1.43 1.49 1.61 1.63 1.65 1.72 1.66 1.51 1.33 1.15 0.95 0.90 1.04 1.32 1.44 1.53 1.55 1.24 1.07 0.99 0.87 0.88 0.89 0.88 0.94 0.98 1.15
1.21 1.26 1.30 1.28 1.29 1.48 1.94 2.03 1.74 1.41 1.24 1.12 1.10 1.09 1.08 1.11 1.22 1.15 1.26 1.39 1.50 1.67 1.79 1.76 1.67 1.34 1.09 1.01 1.19 1.44 1.55 1.63 1.54 1.37 1.36 1.43 1.19 1.05 0.99 1.00 1.03 0.97 1.07
1.16 1.13 1.13 1.11 1.12 1.25 1.72 1.90 1.75 1.43 1.32 1.20 1.12 1.02 0.97 0.97 1.12 1.19 1.22 1.22 1.18 1.30 1.55 1.69 1.76 1.55 1.33 1.29 1.51 1.75 1.88 1.90 1.74 1.62 1.59 1.72 1.44 1.24 1.16 1.11 1.09 1.01 1.02
1.02 1.01 1.00 1.05 1.02 1.08 1.54 1.95 1.87 1.49 1.47 1.37 1.26 1.17 1.07 0.95 1.18 1.30 1.22 1.14 1.04 1.09 1.25 1.51 1.68 1.70 1.68 1.73 1.88 2.12 2.26 2.31 2.18 1.86 1.72 1.81 1.65 1.44 1.38 1.38 1.28 1.16 1.03
0.87 0.90 0.87 0.92 0.92 0.98 1.33 1.85 1.99 1.52 1.44 1.35 1.28 1.24 1.32 1.24 1.31 1.27 1.12 1.14 1.16 1.03 1.00 1.09 1.17 1.27 1.28 1.33 1.61 1.85 2.03 2.23 2.20 2.18 1.86 1.82 1.84 1.78 1.93 1.64 1.37 1.13 1.00